Temperature
4 5 5 5 5 5 5 5 5 5 5 7 6 6 6 6 6 7 7 7 7 7 7 7 7 7 7 7 7 7 6 6 6 6 6 6 6 6 6 6 5 5 5 5
4 5 4 4 5 5 5 5 5 5 6 6 5 6 6 6 6 6 7 7 7 7 7 7 7 7 7 7 6 6 6 6 6 6 6 6 6 5 5 5 5 5 5 5
4 4 4 5 5 5 4 4 5 5 6 5 5 5 5 6 6 6 7 7 6 6 7 7 7 7 7 6 6 6 6 6 6 5 5 5 5 5 5 5 5 4 4 4
3 4 5 7 6 5 5 5 4 4 4 4 5 5 6 7 7 7 6 6 6 6 6 6 6 6 6 6 6 6 5 5 5 5 5 5 5 4 4 4 4 4 4 4
3 3 4 5 5 4 4 4 4 4 4 4 5 5 5 6 6 6 6 6 6 6 6 6 6 6 6 5 5 5 5 5 5 4 4 4 4 4 4 4 3 3 3 3
3 4 5 5 5 4 5 5 4 3 3 3 3 3 4 6 6 6 6 5 5 5 5 5 5 5 5 5 5 5 5 4 4 4 4 4 4 3 3 3 3 3 3 3
3 3 4 4 4 4 5 5 4 4 4 4 3 4 5 5 5 5 5 5 5 5 5 5 5 4 4 4 4 4 4 4 4 4 3 3 3 3 3 2 2 2 2 2
2 3 4 3 3 3 4 4 4 4 4 4 4 5 5 5 5 5 5 5 5 4 4 4 4 4 4 4 4 3 3 3 3 3 3 3 2 2 2 2 2 2 2 2
3 3 3 3 3 4 4 4 4 4 4 4 4 4 4 4 4 4 4 4 4 4 4 4 3 3 3 3 3 3 3 2 2 2 2 2 2 2 2 1 1 1 1 1
1 2 2 3 3 3 4 4 4 4 4 4 3 3 4 3 3 3 3 3 3 3 3 3 3 3 3 2 2 2 2 2 2 2 2 2 2 1 1 1 1 1 1 1
0 1 1 2 3 3 3 3 3 3 3 3 3 3 3 3 3 2 2 2 2 2 2 2 2 2 2 2 2 2 2 2 2 1 1 1 1 1 1 0 0 0 0 -0
1 1 1 2 2 2 2 2 2 2 2 2 2 2 2 2 2 2 2 1 1 2 2 2 2 2 2 1 1 1 1 1 1 1 1 1 1 0 0 -0 -0 -0 -1 -1
2 2 2 2 2 2 2 2 2 1 1 1 1 1 1 1 1 1 1 1 1 1 1 1 1 1 1 1 1 1 1 1 1 1 0 0 0 -0 -0 -0 -0 -1 -1 -1
1 1 1 1 1 1 1 1 1 1 1 1 0 0 0 0 0 -0 -0 -0 -0 0 0 0 0 1 1 1 0 0 0 0 0 0 -0 -0 -1 -1 -1 -1 -1 -1 -1 -1
0 0 0 0 0 0 0 -0 -0 -0 -0 -0 -1 -1 -1 -1 -1 -1 -1 -1 -1 -1 -1 -0 -0 -0 -0 -0 -0 -0 -0 -0 -0 -1 -1 -1 -1 -1 -1 -2 -2 -2 -2 -2
-0 -0 -0 -0 -1 -1 -1 -1 -1 -1 -1 -1 -1 -1 -1 -1 -1 -1 -1 -1 -1 -1 -1 -1 -1 -1 -1 -1 -1 -1 -1 -1 -1 -1 -1 -1 -2 -2 -2 -2 -2 -2 -2 -2
-1 -2 -1 -1 -1 -1 -1 -1 -2 -2 -2 -2 -2 -2 -2 -2 -2 -2 -2 -2 -2 -2 -2 -2 -2 -2 -2 -2 -2 -2 -2 -2 -2 -2 -2 -2 -2 -2 -2 -3 -3 -3 -3 -3
-2 -2 -2 -2 -2 -2 -2 -2 -2 -2 -2 -2 -2 -2 -2 -2 -2 -2 -2 -2 -2 -2 -2 -2 -2 -2 -2 -2 -2 -2 -2 -2 -2 -2 -3 -3 -3 -3 -3 -3 -3 -4 -4 -4
-3 -3 -3 -3 -3 -3 -2 -2 -2 -2 -2 -2 -2 -2 -2 -2 -2 -2 -2 -2 -2 -2 -2 -3 -3 -3 -3 -3 -3 -3 -3 -3 -3 -3 -3 -3 -3 -3 -4 -4 -4 -4 -4 -4
-3 -3 -3 -3 -3 -3 -3 -3 -3 -3 -3 -3 -3 -3 -3 -3 -3 -3 -3 -3 -3 -3 -3 -3 -3 -3 -3 -3 -3 -3 -3 -4 -4 -4 -4 -4 -4 -4 -4 -4 -4 -5 -5 -5
-3 -3 -3 -3 -3 -3 -3 -3 -3 -3 -3 -3 -3 -3 -3 -3 -3 -3 -3 -3 -3 -4 -4 -4 -4 -4 -4 -4 -4 -4 -4 -4 -4 -4 -4 -5 -5 -5 -5 -5 -5 -5 -5 -5
-4 -4 -4 -4 -4 -4 -3 -3 -3 -3 -3 -4 -4 -4 -4 -4 -4 -4 -4 -4 -4 -4 -4 -4 -4 -4 -4 -4 -4 -5 -5 -5 -5 -5 -5 -5 -5 -5 -6 -6 -6 -6 -6 -6
-5 -4 -4 -4 -4 -4 -4 -4 -4 -4 -4 -4 -4 -4 -4 -4 -4 -4 -4 -4 -4 -5 -5 -5 -5 -5 -5 -5 -5 -5 -5 -5 -5 -5 -5 -6 -6 -6 -6 -6 -6 -6 -6 -6
-5 -5 -5 -5 -5 -5 -4 -4 -4 -5 -5 -5 -5 -5 -5 -5 -5 -5 -5 -5 -5 -5 -5 -5 -5 -5 -5 -5 -5 -6 -6 -6 -6 -6 -6 -6 -6 -6 -6 -6 -6 -6 -6 -6
-6 -6 -6 -5 -5 -6 -5 -5 -5 -5 -5 -5 -5 -5 -5 -6 -6 -6 -6 -6 -6 -6 -6 -5 -6 -6 -6 -6 -6 -6 -6 -6 -6 -6 -6 -6 -6 -6 -6 -6 -6 -7 -7 -7
-6 -6 -6 -6 -7 -7 -6 -6 -6 -6 -6 -6 -6 -6 -6 -6 -6 -6 -6 -6 -6 -6 -6 -6 -6 -6 -6 -6 -6 -6 -7 -7 -7 -7 -7 -7 -7 -7 -7 -7 -7 -7 -7 -7
-7 -7 -7 -7 -7 -7 -7 -7 -7 -7 -7 -7 -7 -7 -7 -7 -7 -7 -7 -7 -7 -7 -7 -7 -7 -7 -7 -7 -7 -7 -7 -7 -7 -7 -7 -7 -7 -7 -7 -7 -7 -7 -7 -7
Wind_Speed
8 7 5 8 10 10 12 11 11 11 12 14 9 6 6 4 3 2 3 4 5 4 4 3 3 3 4 4 4 4 4 4 4 4 3 3 2 3 3 3 3 3 3 3
6 6 7 10 12 13 14 12 13 13 15 9 6 4 4 4 4 4 4 4 4 4 4 4 4 4 4 4 4 4 4 4 4 3 3 3 3 3 2 2 2 2 3 3
6 4 4 10 10 12 8 8 9 13 11 3 4 5 5 5 5 6 5 4 4 4 4 4 4 4 5 4 3 3 4 3 3 3 3 3 2 2 3 3 3 3 3 3
3 1 9 7 3 7 8 7 7 7 6 5 6 5 4 3 4 5 4 4 4 4 3 3 3 2 2 2 3 3 3 3 3 3 3 2 2 3 3 3 3 3 3 4
3 5 9 7 2 4 6 5 4 7 8 5 3 2 3 2 3 4 4 4 4 3 3 2 2 2 2 2 2 3 4 4 4 4 3 3 3 3 3 3 3 3 3 3
5 5 7 5 2 1 3 3 3 4 5 3 2 1 5 3 1 2 2 1 1 1 1 2 1 2 2 2 3 4 5 4 4 4 4 4 4 3 2 2 3 2 3 3
8 8 7 5 1 3 3 4 4 2 3 3 4 5 4 2 1 1 1 1 1 2 2 2 2 2 2 2 4 4 3 2 3 3 4 4 3 2 2 2 1 2 2 3
5 7 8 1 3 3 4 3 3 2 2 3 4 3 2 2 1 1 1 1 1 1 1 1 2 2 2 3 3 1 1 1 2 2 2 2 2 2 2 2 1 2 2 3
7 7 2 2 3 3 2 2 3 3 3 3 3 3 3 2 2 1 1 1 1 1 1 1 2 3 3 3 1 1 1 1 1 1 1 2 2 2 1 1 2 2 2 3
4 6 4 4 3 4 3 3 4 4 4 3 3 3 3 2 2 1 1 1 1 1 1 2 2 2 3 3 2 2 2 2 2 2 1 1 2 2 2 2 2 2 3 3
6 5 4 4 4 5 4 3 3 4 3 3 3 3 3 3 3 2 2 2 1 2 2 3 3 3 3 3 3 2 2 2 2 2 2 2 2 3 3 4 4 4 4 4
7 5 4 6 4 4 3 4 4 4 3 3 2 3 3 3 3 2 2 2 2 2 3 3 3 3 3 3 3 3 3 3 3 3 2 2 2 2 5 5 7 7 7 6
7 4 4 5 4 3 3 4 4 3 3 4 3 2 2 2 2 2 2 2 3 4 3 3 3 4 4 3 3 4 5 4 3 3 3 3 3 3 3 4 5 6 7 8
4 3 4 4 4 4 3 4 3 3 3 3 2 2 1 2 2 2 3 4 3 3 3 3 3 4 4 3 3 4 5 5 4 4 4 4 4 4 3 3 4 4 5 7
4 4 5 4 3 3 2 2 3 4 3 3 2 2 2 2 3 4 4 3 2 3 3 3 4 5 4 3 3 4 4 3 4 3 3 4 3 3 3 4 4 4 4 4
4 3 3 3 4 4 3 3 3 4 4 4 3 3 3 4 4 4 3 2 2 4 4 4 5 5 3 2 3 3 4 6 5 3 3 3 3 3 4 4 4 4 5 4
2 3 3 4 4 4 4 3 3 4 4 4 5 4 3 3 4 4 5 4 4 5 5 5 6 5 4 3 4 3 3 4 5 3 3 4 4 4 4 4 5 5 5 6
3 4 4 4 4 4 5 4 3 4 4 5 5 4 3 4 5 6 6 5 4 5 6 6 6 5 4 4 4 3 3 3 3 4 4 4 4 4 4 5 5 6 6 6
3 3 3 3 3 3 3 4 5 5 5 4 4 4 5 5 5 5 5 4 4 6 6 5 6 5 5 5 4 3 3 4 4 4 4 6 5 4 4 5 5 5 6 5
4 4 4 4 3 3 4 5 5 5 5 4 4 5 5 6 5 5 4 5 5 5 6 6 5 5 5 5 5 3 4 4 4 4 4 4 5 5 5 5 5 6 6 6
5 5 5 5 5 5 4 4 4 5 5 4 4 5 6 6 5 4 4 6 6 5 5 7 5 4 4 4 5 3 4 4 5 5 5 5 5 5 5 5 6 6 6 6
5 5 5 5 5 6 5 4 4 5 5 5 5 5 5 5 5 5 5 6 6 6 4 4 3 5 6 6 3 3 4 4 5 4 4 5 5 5 5 6 6 6 6 6
6 5 5 5 5 6 6 5 5 4 5 5 5 5 5 5 4 4 6 4 4 7 5 4 6 9 9 5 3 3 4 4 5 5 5 5 5 6 6 7 6 6 6 6
6 6 6 5 5 5 6 6 5 5 5 5 5 5 5 4 4 4 5 7 8 9 5 7 10 10 9 3 3 4 4 4 5 5 5 5 6 6 6 6 7 6 7 8
6 6 6 6 5 5 6 6 6 5 5 5 5 5 4 4 5 5 4 5 8 9 5 7 10 10 6 4 4 4 4 5 5 5 5 5 6 6 6 6 7 7 6 7
5 5 6 6 5 5 5 5 5 5 5 5 5 4 4 4 4 5 4 5 6 8 6 5 5 6 4 4 5 5 5 6 6 6 5 5 6 6 6 7 8 7 7 7
6 5 5 5 5 4 4 4 5 5 5 5 6 5 5 5 5 5 5 5 5 5 5 5 5 5 5 5 5 5 5 5 5 5 5 6 6 6 7 7 7 6 6 6
Wind_Direction
253 262 249 244 237 213 214 216 225 246 247 263 269 271 274 266 251 239 226 210 203 199 202 203 200 199 200 202 196 187 185 199 214 216 209 201 204 213 218 219 228 225 226 238
270 257 249 262 252 232 232 231 238 256 266 263 265 260 264 253 238 238 236 221 210 206 202 207 211 212 208 210 205 190 195 210 215 208 204 208 213 215 216 226 230 224 229 234
265 282 306 266 236 216 218 216 211 237 250 277 285 272 259 246 231 234 235 220 209 210 213 215 216 212 212 213 199 188 204 214 209 206 211 221 222 218 229 230 227 234 237 235
256 292 245 250 196 194 214 236 223 240 265 269 259 263 251 235 224 235 227 222 221 216 218 224 215 218 213 190 185 194 210 219 214 209 221 222 218 229 234 229 223 230 240 242
213 241 269 292 256 182 196 259 232 239 267 288 302 349 314 275 220 228 229 224 221 212 206 202 207 196 165 183 192 200 216 223 221 211 215 216 226 237 235 224 230 233 240 242
208 230 246 261 291 218 145 275 292 237 257 264 96 316 280 286 242 251 260 248 236 203 169 185 205 156 156 196 206 222 228 230 226 213 208 215 226 231 229 221 230 237 253 248
223 238 260 275 297 110 169 267 316 261 248 201 209 232 262 268 267 246 243 231 188 169 192 217 195 153 171 206 230 238 233 227 225 216 214 216 214 215 215 219 226 243 264 273
199 226 252 289 110 171 236 294 301 294 268 237 245 271 291 279 283 294 303 286 170 163 226 233 179 159 189 237 247 238 202 218 236 229 216 201 193 212 205 194 217 253 269 285
202 220 268 191 222 257 285 293 305 302 291 260 267 277 280 277 271 268 251 247 211 175 230 259 211 184 211 246 236 171 172 228 243 237 208 191 189 199 205 199 218 248 251 270
241 259 273 281 286 299 293 293 304 300 292 273 262 268 270 261 263 268 285 272 237 185 222 256 244 226 221 226 203 183 207 233 228 217 227 213 201 200 206 215 227 242 254 265
250 271 302 296 287 290 305 313 312 309 297 270 257 269 264 263 261 259 274 281 251 220 233 252 253 254 246 222 191 198 220 232 228 219 215 225 234 229 228 228 222 230 241 244
245 246 245 276 294 303 306 307 302 306 314 303 262 257 262 261 261 256 258 265 268 258 248 255 253 258 256 230 200 199 226 233 226 224 224 221 234 280 265 250 260 258 254 255
251 264 252 268 286 288 289 297 302 297 285 295 298 272 259 276 276 270 272 264 256 256 258 260 259 262 259 235 212 212 225 234 228 222 220 222 222 235 280 296 278 267 265 267
252 267 279 279 280 289 285 290 303 310 299 285 283 291 283 290 293 281 272 265 259 260 265 263 262 267 262 234 222 228 230 234 229 224 221 221 223 229 235 255 284 290 280 276
267 250 249 270 298 312 312 322 325 317 317 318 310 298 290 282 278 276 278 279 284 282 274 268 267 273 267 232 229 234 232 229 224 222 221 222 222 227 234 242 254 271 286 290
279 287 282 290 295 303 312 311 303 298 301 303 301 289 276 270 276 284 283 269 263 272 275 272 268 270 265 236 235 241 237 240 236 221 218 221 222 227 236 242 250 258 265 272
288 296 296 299 298 298 291 282 278 282 290 291 288 288 290 295 296 291 286 275 257 257 261 263 267 272 263 242 234 240 239 242 245 239 229 228 228 232 236 242 250 257 262 266
258 263 267 266 275 289 298 300 296 291 284 284 292 293 287 282 280 282 284 288 288 283 272 261 261 265 260 249 239 237 234 235 232 232 237 235 239 235 236 243 252 261 272 276
318 310 308 303 292 283 283 288 288 286 287 294 292 284 278 273 273 280 285 285 282 284 284 273 273 268 260 254 251 235 231 234 239 239 238 250 255 245 243 248 255 259 266 271
330 325 318 312 311 302 294 293 294 293 291 286 287 290 291 288 285 284 280 270 261 260 272 279 276 265 259 255 253 232 229 233 240 245 243 242 246 251 252 254 257 261 264 265
321 319 314 309 307 304 296 293 291 290 293 286 274 275 279 285 284 276 273 282 282 268 272 280 276 266 260 258 255 235 231 235 240 242 245 248 253 256 256 257 258 260 262 264
311 310 306 304 302 302 299 294 286 285 291 289 281 277 281 285 284 277 258 257 273 285 289 278 276 279 280 275 250 238 239 242 246 247 247 249 251 256 258 258 259 262 262 262
306 306 305 302 298 296 299 296 285 280 280 281 281 280 277 275 272 276 286 278 277 288 290 273 281 288 291 286 258 250 249 250 252 252 251 251 251 252 256 259 260 261 262 264
307 305 303 302 303 301 299 297 295 289 280 279 275 270 272 283 285 266 265 291 300 298 289 284 289 289 292 278 256 251 251 254 255 254 254 254 253 254 256 258 260 261 262 264
302 301 303 306 303 296 292 297 301 298 293 289 285 279 272 258 266 283 286 290 297 302 297 296 297 296 290 268 258 256 256 256 258 258 254 257 258 258 258 258 259 262 262 263
302 302 298 293 289 290 294 297 296 295 296 297 297 291 287 282 276 280 284 287 287 296 296 290 289 290 282 271 265 263 260 267 273 268 260 262 263 263 263 262 262 262 263 263
307 306 307 307 306 302 302 299 295 296 295 293 297 296 292 293 292 290 289 290 291 291 290 288 285 280 276 272 270 267 264 261 261 262 262 261 261 261 262 262 263 263 263 264
Height
1479 1476 1476 1474 1472 1475 1476 1474 1474 1464 1462 1451 1450 1450 1448 1448 1447 1448 1448 1449 1451 1452 1454 1456 1458 1460 1461 1462 1464 1465 1466 1467 1468 1469 1469 1470 1471 1471 1472 1472 1472 1472 1472 1472
1477 1473 1473 1470 1466 1466 1466 1465 1463 1460 1454 1447 1447 1447 1446 1446 1446 1446 1446 1447 1448 1450 1452 1453 1455 1456 1458 1459 1460 1461 1462 1463 1464 1465 1465 1466 1467 1467 1468 1468 1468 1468 1468 1468
1477 1473 1470 1464 1455 1457 1457 1455 1455 1454 1447 1446 1446 1445 1444 1444 1444 1444 1445 1445 1446 1448 1449 1451 1452 1453 1454 1455 1456 1457 1459 1460 1461 1461 1462 1462 1463 1463 1463 1464 1464 1464 1464 1464
1477 1474 1469 1449 1446 1447 1449 1448 1449 1446 1444 1443 1442 1442 1441 1441 1442 1442 1443 1444 1445 1446 1447 1449 1450 1451 1451 1452 1453 1454 1455 1456 1457 1457 1458 1458 1459 1459 1459 1459 1459 1459 1459 1459
1475 1471 1460 1449 1446 1447 1448 1446 1444 1444 1442 1441 1440 1439 1439 1439 1440 1441 1442 1442 1443 1444 1445 1446 1446 1447 1448 1449 1450 1451 1451 1452 1453 1453 1454 1454 1454 1454 1454 1454 1454 1454 1454 1454
1470 1466 1456 1447 1444 1442 1444 1445 1441 1440 1439 1439 1440 1443 1439 1437 1438 1438 1439 1440 1440 1441 1442 1442 1443 1444 1445 1446 1447 1447 1448 1449 1449 1449 1449 1449 1450 1450 1450 1450 1450 1450 1450 1450
1464 1460 1452 1446 1443 1442 1447 1444 1440 1438 1438 1438 1438 1438 1437 1436 1436 1436 1437 1437 1438 1438 1439 1440 1440 1441 1442 1443 1443 1444 1444 1445 1445 1445 1445 1445 1445 1446 1446 1446 1446 1446 1446 1446
1461 1460 1452 1443 1444 1446 1443 1440 1439 1437 1437 1436 1436 1435 1435 1434 1434 1434 1434 1435 1435 1435 1436 1437 1438 1438 1438 1439 1440 1440 1441 1441 1441 1441 1441 1441 1441 1442 1442 1442 1442 1442 1442 1442
1450 1447 1443 1441 1441 1440 1440 1439 1437 1436 1435 1435 1434 1433 1433 1433 1432 1432 1432 1432 1433 1433 1433 1434 1435 1435 1436 1436 1437 1437 1437 1438 1438 1438 1437 1437 1438 1438 1438 1438 1438 1438 1438 1438
1447 1442 1440 1440 1439 1438 1438 1437 1436 1435 1434 1433 1432 1431 1431 1430 1430 1430 1430 1430 1430 1430 1431 1431 1432 1433 1433 1434 1434 1434 1434 1434 1434 1434 1434 1434 1434 1434 1434 1434 1434 1434 1434 1433
1443 1439 1438 1436 1436 1436 1435 1434 1433 1433 1432 1431 1430 1429 1428 1428 1427 1427 1427 1428 1428 1428 1428 1428 1429 1430 1430 1430 1430 1430 1431 1431 1431 1431 1431 1431 1431 1431 1431 1431 1431 1430 1430 1429
1437 1435 1436 1434 1434 1433 1432 1431 1430 1429 1428 1428 1427 1426 1426 1425 1425 1425 1425 1425 1425 1425 1425 1425 1426 1426 1426 1427 1427 1427 1427 1427 1427 1427 1427 1427 1426 1426 1426 1427 1426 1426 1425 1425
1432 1432 1432 1431 1431 1430 1429 1428 1428 1427 1425 1425 1424 1423 1423 1422 1422 1422 1422 1422 1422 1422 1422 1422 1422 1422 1422 1423 1423 1423 1423 1423 1423 1423 1422 1422 1422 1421 1421 1421 1421 1421 1420 1420
1429 1429 1428 1427 1427 1427 1426 1425 1424 1423 1423 1422 1421 1421 1420 1419 1419 1418 1418 1418 1418 1418 1418 1418 1418 1418 1418 1418 1418 1418 1418 1418 1418 1418 1418 1417 1417 1417 1416 1416 1415 1415 1415 1415
1426 1426 1425 1424 1424 1424 1423 1422 1421 1420 1420 1419 1418 1418 1417 1417 1416 1416 1415 1415 1415 1414 1414 1414 1414 1413 1414 1414 1413 1413 1413 1413 1413 1413 1413 1413 1412 1412 1412 1411 1410 1409 1409 1409
1423 1422 1422 1422 1421 1421 1420 1419 1418 1418 1417 1416 1415 1415 1414 1414 1413 1413 1412 1412 1411 1410 1410 1409 1409 1409 1409 1409 1408 1408 1408 1408 1408 1408 1407 1407 1407 1407 1406 1406 1405 1404 1404 1404
1421 1420 1420 1419 1419 1418 1418 1417 1416 1415 1414 1414 1413 1412 1412 1411 1410 1409 1409 1408 1408 1407 1406 1405 1405 1405 1405 1404 1404 1403 1403 1402 1402 1402 1402 1402 1402 1401 1401 1400 1400 1399 1399 1398
1420 1419 1418 1418 1417 1416 1415 1414 1414 1413 1412 1411 1410 1410 1409 1407 1406 1406 1405 1404 1403 1403 1402 1402 1401 1400 1400 1399 1399 1398 1397 1397 1397 1397 1396 1396 1396 1396 1396 1395 1395 1394 1393 1393
1418 1417 1416 1415 1414 1413 1412 1412 1411 1410 1409 1408 1407 1406 1405 1404 1403 1402 1401 1400 1399 1398 1398 1397 1397 1396 1395 1395 1394 1393 1392 1392 1392 1391 1391 1391 1391 1390 1390 1390 1389 1389 1388 1387
1416 1415 1414 1413 1412 1411 1410 1409 1408 1407 1406 1405 1404 1403 1401 1400 1399 1398 1397 1396 1395 1394 1393 1393 1392 1391 1391 1390 1389 1388 1387 1387 1386 1386 1386 1386 1385 1385 1384 1384 1383 1383 1382 1381
1414 1413 1412 1411 1409 1408 1407 1406 1405 1403 1402 1402 1400 1399 1398 1397 1395 1394 1392 1391 1391 1390 1389 1388 1387 1386 1386 1385 1384 1383 1382 1382 1381 1381 1380 1380 1380 1379 1379 1378 1378 1377 1376 1375
1412 1411 1409 1408 1407 1405 1404 1403 1402 1400 1399 1398 1397 1395 1394 1392 1391 1390 1388 1388 1387 1386 1384 1383 1382 1381 1380 1380 1379 1378 1377 1377 1376 1376 1375 1375 1374 1374 1373 1373 1372 1371 1370 1369
1410 1409 1407 1405 1404 1402 1401 1400 1398 1397 1395 1394 1393 1391 1390 1389 1387 1386 1384 1383 1382 1381 1380 1379 1378 1376 1375 1374 1374 1373 1372 1372 1371 1370 1370 1370 1369 1368 1368 1367 1366 1365 1364 1363
1408 1406 1404 1402 1401 1399 1397 1396 1394 1393 1392 1390 1389 1388 1386 1385 1383 1382 1380 1379 1378 1376 1375 1374 1373 1371 1370 1369 1368 1368 1367 1366 1366 1365 1365 1364 1363 1363 1362 1361 1360 1359 1357 1356
1404 1402 1401 1399 1397 1395 1393 1391 1390 1389 1387 1386 1385 1384 1383 1381 1379 1377 1376 1374 1372 1371 1370 1368 1367 1366 1365 1364 1363 1362 1362 1361 1360 1360 1359 1358 1357 1356 1355 1354 1353 1352 1351 1350
1401 1399 1397 1395 1393 1391 1389 1387 1385 1384 1383 1381 1380 1379 1377 1376 1374 1372 1370 1369 1367 1366 1364 1363 1362 1361 1360 1358 1358 1357 1356 1355 1354 1353 1352 1352 1351 1350 1349 1348 1347 1346 1344 1343
1397 1395 1393 1390 1389 1387 1385 1383 1381 1380 1378 1376 1374 1373 1372 1370 1368 1366 1365 1363 1362 1360 1359 1357 1356 1355 1354 1353 1352 1351 1350 1349 1348 1347 1346 1345 1344 1343 1342 1341 1340 1339 1338 1337